Time,TemperatureF,DewpointF,PressureIn,WindDirection,WindDirectionDegrees,WindSpeedMPH,WindSpeedGustMPH,Humidity,HourlyPrecipIn,Conditions,Clouds,dailyrainin,SolarRadiationWatts/m^2,SoftwareType,DateUTC
2013-01-23 00:00:00,45.3,45.3,30.07,SSW,207,0.0,2.0,100,0.00,,,0.00,0001,Weather View 32 v70,2013-01-23 08:00:00,
2013-01-23 00:07:00,45.2,45.2,30.08,SE,139,0.0,2.0,100,0.00,,,0.00,0001,Weather View 32 v70,2013-01-23 08:07:00,
2013-01-23 00:15:00,45.4,45.4,30.08,SW,229,0.0,3.0,100,0.00,,,0.00,0001,Weather View 32 v70,2013-01-23 08:15:00,
2013-01-23 00:20:00,46.0,46.0,30.07,NNE,27,0.0,3.0,100,0.00,,,0.00,0001,Weather View 32 v70,2013-01-23 08:20:00,
2013-01-23 00:25:00,45.8,45.8,30.07,SW,229,0.0,3.0,100,0.00,,,0.00,0001,Weather View 32 v70,2013-01-23 08:25:00,
2013-01-23 00:35:00,45.2,45.2,30.08,SE,139,2.0,3.0,100,0.00,,,0.00,0001,Weather View 32 v70,2013-01-23 08:35:00,
2013-01-23 00:40:00,44.9,44.9,30.07,ESE,117,0.0,3.0,100,0.00,,,0.00,0001,Weather View 32 v70,2013-01-23 08:40:00,
2013-01-23 00:45:00,44.9,44.9,30.07,SE,139,0.0,3.0,100,0.00,,,0.00,0001,Weather View 32 v70,2013-01-23 08:45:00,
2013-01-23 00:50:00,44.9,44.9,30.07,SE,139,0.0,3.0,100,0.00,,,0.00,0001,Weather View 32 v70,2013-01-23 08:50:00,
2013-01-23 00:55:00,44.6,44.6,30.07,ESE,117,0.0,3.0,100,0.00,,,0.00,0001,Weather View 32 v70,2013-01-23 08:55:00,
2013-01-23 01:05:00,44.6,44.6,30.07,ESE,117,0.0,3.0,100,0.00,,,0.00,0001,Weather View 32 v70,2013-01-23 09:05:00,
2013-01-23 01:10:00,44.6,44.6,30.07,ESE,117,0.0,3.0,100,0.00,,,0.00,0001,Weather View 32 v70,2013-01-23 09:10:00,
2013-01-23 01:15:00,44.6,44.6,30.07,ESE,117,0.0,3.0,100,0.00,,,0.00,0002,Weather View 32 v70,2013-01-23 09:15:00,
2013-01-23 01:20:00,44.6,44.6,30.07,ESE,117,0.0,3.0,100,0.00,,,0.00,0001,Weather View 32 v70,2013-01-23 09:20:00,
2013-01-23 01:30:00,44.6,44.6,30.07,ESE,117,0.0,3.0,100,0.00,,,0.00,0001,Weather View 32 v70,2013-01-23 09:30:00,
2013-01-23 01:35:00,44.6,44.6,30.07,ESE,117,0.0,3.0,100,0.00,,,0.00,0001,Weather View 32 v70,2013-01-23 09:35:00,
2013-01-23 01:45:00,44.7,44.7,30.07,NNW,342,0.0,2.0,100,0.00,,,0.00,0002,Weather View 32 v70,2013-01-23 09:45:00,
2013-01-23 01:50:00,44.8,44.8,30.07,NW,319,0.0,2.0,100,0.00,,,0.00,0002,Weather View 32 v70,2013-01-23 09:50:00,
2013-01-23 01:55:00,44.9,44.9,30.07,South,184,0.0,1.0,100,0.00,,,0.00,0001,Weather View 32 v70,2013-01-23 09:55:00,
2013-01-23 02:00:00,44.9,44.9,30.07,SE,139,0.0,1.0,100,0.00,,,0.00,0002,Weather View 32 v70,2013-01-23 10:00:00,
2013-01-23 02:05:00,44.9,44.9,30.06,SSW,207,0.0,2.0,100,0.00,,,0.00,0002,Weather View 32 v70,2013-01-23 10:05:00,
2013-01-23 02:15:00,44.9,44.9,30.07,SE,139,0.0,2.0,100,0.00,,,0.00,0002,Weather View 32 v70,2013-01-23 10:15:00,
2013-01-23 02:20:00,44.9,44.9,30.07,SE,139,0.0,2.0,100,0.00,,,0.00,0001,Weather View 32 v70,2013-01-23 10:20:00,
2013-01-23 02:25:00,44.9,44.9,30.06,SSW,207,0.0,2.0,100,0.00,,,0.00,0002,Weather View 32 v70,2013-01-23 10:25:00,
2013-01-23 02:30:00,44.9,44.9,30.06,SE,139,0.0,2.0,100,0.00,,,0.00,0001,Weather View 32 v70,2013-01-23 10:30:00,
2013-01-23 02:40:00,44.9,44.9,30.06,WNW,297,1.0,2.0,100,0.00,,,0.00,0002,Weather View 32 v70,2013-01-23 10:40:00,
2013-01-23 02:45:00,45.0,45.0,30.06,South,184,0.0,2.0,100,0.00,,,0.00,0001,Weather View 32 v70,2013-01-23 10:45:00,
2013-01-23 02:50:00,45.0,45.0,30.06,ESE,117,0.0,2.0,100,0.00,,,0.00,0001,Weather View 32 v70,2013-01-23 10:50:00,
2013-01-23 02:55:00,45.0,45.0,30.06,ESE,117,0.0,2.0,100,0.00,,,0.00,0001,Weather View 32 v70,2013-01-23 10:55:00,
2013-01-23 03:05:00,44.9,44.9,30.05,SSE,162,0.0,2.0,100,0.00,,,0.00,0002,Weather View 32 v70,2013-01-23 11:05:00,
2013-01-23 03:15:00,44.8,44.8,30.05,SSE,162,0.0,2.0,100,0.00,,,0.00,0001,Weather View 32 v70,2013-01-23 11:15:00,
2013-01-23 03:20:00,44.7,44.7,30.05,SE,139,0.0,2.0,100,0.00,,,0.00,0001,Weather View 32 v70,2013-01-23 11:20:00,
2013-01-23 03:25:00,44.6,44.6,30.04,SSE,162,0.0,2.0,100,0.00,,,0.00,0001,Weather View 32 v70,2013-01-23 11:25:00,
2013-01-23 03:35:00,44.7,44.7,30.05,South,184,0.0,3.0,100,0.00,,,0.00,0001,Weather View 32 v70,2013-01-23 11:35:00,
2013-01-23 03:40:00,44.8,44.8,30.05,NNW,342,0.0,3.0,100,0.00,,,0.00,0001,Weather View 32 v70,2013-01-23 11:40:00,
2013-01-23 03:45:00,44.8,44.8,30.04,NNE,27,1.0,3.0,100,0.00,,,0.00,0001,Weather View 32 v70,2013-01-23 11:45:00,
2013-01-23 03:50:00,44.8,44.8,30.05,NE,49,0.0,3.0,100,0.00,,,0.00,0001,Weather View 32 v70,2013-01-23 11:50:00,
2013-01-23 03:55:00,44.6,44.6,30.05,SSE,162,1.0,3.0,100,0.00,,,0.00,0001,Weather View 32 v70,2013-01-23 11:55:00,
2013-01-23 04:05:00,44.5,44.5,30.04,South,184,0.0,3.0,100,0.00,,,0.00,0001,Weather View 32 v70,2013-01-23 12:05:00,
2013-01-23 04:10:00,44.6,44.6,30.04,SE,139,0.0,3.0,100,0.00,,,0.00,0001,Weather View 32 v70,2013-01-23 12:10:00,
2013-01-23 04:15:00,44.8,44.8,30.04,South,184,0.0,3.0,100,0.00,,,0.00,0001,Weather View 32 v70,2013-01-23 12:15:00,
2013-01-23 04:20:00,44.8,44.8,30.04,SSE,162,0.0,3.0,100,0.00,,,0.00,0001,Weather View 32 v70,2013-01-23 12:20:00,
2013-01-23 04:25:00,45.0,45.0,30.04,South,184,0.0,3.0,100,0.00,,,0.00,0001,Weather View 32 v70,2013-01-23 12:25:00,
2013-01-23 04:35:00,45.1,45.1,30.04,SSW,207,0.0,2.0,100,0.00,,,0.00,0001,Weather View 32 v70,2013-01-23 12:35:00,
2013-01-23 04:40:00,44.9,44.9,30.03,SSE,162,0.0,2.0,100,0.00,,,0.00,0001,Weather View 32 v70,2013-01-23 12:40:00,
2013-01-23 04:45:00,44.6,44.6,30.03,West,274,0.0,2.0,100,0.00,,,0.00,0002,Weather View 32 v70,2013-01-23 12:45:00,
2013-01-23 04:50:00,44.5,44.5,30.03,WNW,297,0.0,1.0,100,0.00,,,0.00,0001,Weather View 32 v70,2013-01-23 12:50:00,
2013-01-23 05:00:00,44.6,44.6,30.02,SSE,162,0.0,1.0,100,0.00,,,0.00,0002,Weather View 32 v70,2013-01-23 13:00:00,
2013-01-23 05:05:00,44.4,44.4,30.02,SE,139,0.0,0.0,100,0.00,,,0.00,0002,Weather View 32 v70,2013-01-23 13:05:00,
2013-01-23 05:10:00,44.1,44.1,30.01,SE,139,0.0,0.0,100,0.00,,,0.00,0002,Weather View 32 v70,2013-01-23 13:10:00,
2013-01-23 05:20:00,44.1,44.1,30.01,NW,319,0.0,0.0,100,0.00,,,0.00,0001,Weather View 32 v70,2013-01-23 13:20:00,
2013-01-23 05:30:00,44.2,44.2,30.00,NW,319,0.0,0.0,100,0.00,,,0.00,0001,Weather View 32 v70,2013-01-23 13:30:00,
2013-01-23 05:35:00,44.2,44.2,30.00,SE,139,0.0,0.0,100,0.00,,,0.00,0001,Weather View 32 v70,2013-01-23 13:35:00,
2013-01-23 05:40:00,44.1,44.1,30.01,SSE,162,0.0,0.0,100,0.00,,,0.00,0001,Weather View 32 v70,2013-01-23 13:40:00,
2013-01-23 05:45:00,44.0,44.0,30.01,SSE,162,0.0,0.0,100,0.00,,,0.00,0001,Weather View 32 v70,2013-01-23 13:45:00,
2013-01-23 05:55:00,44.3,44.3,30.01,North,4,0.0,0.0,100,0.00,,,0.00,0001,Weather View 32 v70,2013-01-23 13:55:00,
2013-01-23 06:00:00,44.3,44.3,30.02,SSW,207,0.0,0.0,100,0.00,,,0.00,0001,Weather View 32 v70,2013-01-23 14:00:00,
2013-01-23 06:05:00,44.3,44.3,30.01,SSW,207,0.0,0.0,100,0.00,,,0.00,0001,Weather View 32 v70,2013-01-23 14:05:00,
2013-01-23 06:10:00,44.3,44.3,30.01,NNW,342,0.0,0.0,100,0.00,,,0.00,0001,Weather View 32 v70,2013-01-23 14:10:00,
2013-01-23 06:20:00,44.2,44.2,30.02,SE,139,0.0,0.0,100,0.00,,,0.00,0001,Weather View 32 v70,2013-01-23 14:20:00,
2013-01-23 06:25:00,44.2,44.2,30.02,NW,319,1.0,2.0,100,0.00,,,0.00,0001,Weather View 32 v70,2013-01-23 14:25:00,
2013-01-23 06:30:00,44.3,44.3,30.02,SSW,207,0.0,2.0,100,0.00,,,0.00,0001,Weather View 32 v70,2013-01-23 14:30:00,
2013-01-23 06:35:00,44.3,44.3,30.03,SSW,207,2.0,3.0,100,0.00,,,0.00,0001,Weather View 32 v70,2013-01-23 14:35:00,
2013-01-23 06:40:00,44.6,44.6,30.03,South,184,0.0,3.0,100,0.00,,,0.00,0002,Weather View 32 v70,2013-01-23 14:40:00,
2013-01-23 06:50:00,44.8,44.8,30.03,SSE,162,0.0,3.0,100,0.00,,,0.00,0002,Weather View 32 v70,2013-01-23 14:50:00,
2013-01-23 06:55:00,44.9,44.9,30.03,SSE,162,0.0,3.0,100,0.00,,,0.00,0001,Weather View 32 v70,2013-01-23 14:55:00,
2013-01-23 07:00:00,44.9,44.9,30.03,South,184,0.0,3.0,100,0.00,,,0.00,0002,Weather View 32 v70,2013-01-23 15:00:00,
2013-01-23 07:05:00,44.9,44.9,30.03,SSE,162,0.0,3.0,100,0.00,,,0.00,0002,Weather View 32 v70,2013-01-23 15:05:00,
2013-01-23 07:11:00,44.9,44.9,30.02,SSE,162,0.0,3.0,100,0.00,,,0.00,0002,Weather View 32 v70,2013-01-23 15:11:00,
2013-01-23 07:20:00,45.0,45.0,30.02,SSW,207,0.0,3.0,100,0.00,,,0.00,0002,Weather View 32 v70,2013-01-23 15:20:00,
2013-01-23 07:25:00,45.0,45.0,30.02,South,184,0.0,3.0,100,0.00,,,0.00,0003,Weather View 32 v70,2013-01-23 15:25:00,
2013-01-23 07:30:00,44.9,44.9,30.02,West,274,0.0,3.0,100,0.00,,,0.00,0004,Weather View 32 v70,2013-01-23 15:30:00,
2013-01-23 07:35:00,45.0,45.0,30.02,SSW,207,0.0,3.0,100,0.00,,,0.00,0005,Weather View 32 v70,2013-01-23 15:35:00,
2013-01-23 07:45:00,44.9,44.9,30.02,ESE,117,1.0,1.0,100,0.00,,,0.00,0011,Weather View 32 v70,2013-01-23 15:45:00,
2013-01-23 07:50:00,44.9,44.9,30.02,South,184,1.0,1.0,100,0.00,,,0.00,0021,Weather View 32 v70,2013-01-23 15:50:00,
2013-01-23 07:55:00,45.2,45.2,30.02,SSE,162,0.0,1.0,100,0.00,,,0.00,0029,Weather View 32 v70,2013-01-23 15:55:00,
2013-01-23 08:05:00,45.2,45.2,30.03,SSE,162,1.0,1.0,100,0.00,,,0.00,0024,Weather View 32 v70,2013-01-23 16:05:00,
2013-01-23 08:10:00,45.2,45.2,30.03,SE,139,0.0,1.0,100,0.00,,,0.00,0020,Weather View 32 v70,2013-01-23 16:10:00,
2013-01-23 08:20:00,45.2,45.2,30.04,ESE,117,3.0,4.0,100,0.00,,,0.00,0014,Weather View 32 v70,2013-01-23 16:20:00,
2013-01-23 08:25:00,45.2,45.2,30.04,South,184,1.0,4.0,100,0.00,,,0.00,0023,Weather View 32 v70,2013-01-23 16:25:00,
2013-01-23 08:30:00,45.4,45.4,30.04,SE,139,0.0,4.0,100,0.00,,,0.00,0031,Weather View 32 v70,2013-01-23 16:30:00,
2013-01-23 08:35:00,45.5,45.5,30.04,ENE,72,0.0,4.0,100,0.00,,,0.00,0050,Weather View 32 v70,2013-01-23 16:35:00,
2013-01-23 08:45:00,45.9,45.9,30.05,SE,139,0.0,4.0,100,0.00,,,0.00,0033,Weather View 32 v70,2013-01-23 16:45:00,
2013-01-23 08:50:00,45.9,45.9,30.04,North,4,1.0,4.0,100,0.00,,,0.00,0045,Weather View 32 v70,2013-01-23 16:50:00,
2013-01-23 08:55:00,46.0,46.0,30.03,SSW,207,0.0,4.0,100,0.00,,,0.00,0060,Weather View 32 v70,2013-01-23 16:55:00,
2013-01-23 09:00:00,46.2,46.2,30.05,South,184,1.0,4.0,100,0.00,,,0.00,0079,Weather View 32 v70,2013-01-23 17:00:00,
2013-01-23 09:05:00,46.5,46.5,30.05,NNE,27,1.0,4.0,100,0.00,,,0.00,0090,Weather View 32 v70,2013-01-23 17:05:00,
2013-01-23 09:12:00,46.7,46.7,30.05,SE,139,0.0,4.0,100,0.00,,,0.00,0073,Weather View 32 v70,2013-01-23 17:12:00,
2013-01-23 09:20:00,47.2,47.2,30.05,SSE,162,0.0,4.0,100,0.00,,,0.00,0124,Weather View 32 v70,2013-01-23 17:20:00,
2013-01-23 09:25:00,47.5,47.5,30.06,South,184,0.0,3.0,100,0.00,,,0.00,0073,Weather View 32 v70,2013-01-23 17:25:00,
2013-01-23 09:30:00,47.8,47.8,30.06,ESE,117,0.0,3.0,100,0.00,,,0.00,0076,Weather View 32 v70,2013-01-23 17:30:00,
2013-01-23 09:35:00,47.8,47.8,30.06,SSE,162,0.0,3.0,100,0.00,,,0.00,0106,Weather View 32 v70,2013-01-23 17:35:00,
2013-01-23 09:45:00,48.1,48.1,30.07,SE,139,0.0,3.0,100,0.00,,,0.00,0092,Weather View 32 v70,2013-01-23 17:45:00,
2013-01-23 09:50:00,48.2,48.2,30.07,ENE,72,0.0,3.0,100,0.00,,,0.00,0093,Weather View 32 v70,2013-01-23 17:50:00,
2013-01-23 09:55:00,48.4,48.4,30.07,East,94,1.0,3.0,100,0.00,,,0.00,0077,Weather View 32 v70,2013-01-23 17:55:00,
2013-01-23 10:00:00,48.5,48.5,30.07,SSE,162,0.0,3.0,100,0.00,,,0.00,0073,Weather View 32 v70,2013-01-23 18:00:00,
2013-01-23 10:10:00,48.8,48.8,30.08,South,184,0.0,2.0,100,0.00,,,0.00,0100,Weather View 32 v70,2013-01-23 18:10:00,
2013-01-23 10:15:00,48.9,48.9,30.07,South,184,0.0,2.0,100,0.00,,,0.00,0098,Weather View 32 v70,2013-01-23 18:15:00,
2013-01-23 10:20:00,49.0,49.0,30.07,SSE,162,0.0,2.0,100,0.00,,,0.00,0109,Weather View 32 v70,2013-01-23 18:20:00,
2013-01-23 10:25:00,48.9,48.9,30.07,WNW,297,1.0,3.0,100,0.00,,,0.00,0109,Weather View 32 v70,2013-01-23 18:25:00,
2013-01-23 10:30:00,49.1,49.1,30.06,NNE,27,1.0,3.0,100,0.00,,,0.00,0111,Weather View 32 v70,2013-01-23 18:30:00,
2013-01-23 10:35:00,49.3,49.3,30.07,SE,139,1.0,3.0,100,0.00,,,0.00,0115,Weather View 32 v70,2013-01-23 18:35:00,
2013-01-23 10:45:00,49.5,49.5,30.08,SE,139,1.0,3.0,100,0.00,,,0.00,0114,Weather View 32 v70,2013-01-23 18:45:00,
2013-01-23 10:50:00,49.7,49.7,30.08,South,184,1.0,3.0,100,0.00,,,0.00,0130,Weather View 32 v70,2013-01-23 18:50:00,
2013-01-23 10:55:00,49.9,49.9,30.08,East,94,0.0,3.0,100,0.00,,,0.00,0119,Weather View 32 v70,2013-01-23 18:55:00,
2013-01-23 11:00:00,50.0,50.0,30.08,West,274,1.0,3.0,100,0.00,,,0.00,0126,Weather View 32 v70,2013-01-23 19:00:00,
2013-01-23 11:05:00,50.2,50.2,30.08,WSW,252,1.0,3.0,100,0.00,,,0.00,0131,Weather View 32 v70,2013-01-23 19:05:00,
2013-01-23 11:13:00,50.4,50.4,30.08,ENE,72,1.0,3.0,100,0.00,,,0.00,0131,Weather View 32 v70,2013-01-23 19:13:00,
2013-01-23 11:20:00,50.7,50.7,30.07,ENE,72,0.0,3.0,100,0.00,,,0.00,0101,Weather View 32 v70,2013-01-23 19:20:00,
2013-01-23 11:25:00,50.9,50.9,30.07,SE,139,0.0,3.0,100,0.00,,,0.00,0112,Weather View 32 v70,2013-01-23 19:25:00,
2013-01-23 11:30:00,50.9,50.9,30.07,NW,319,2.0,3.0,100,0.00,,,0.00,0120,Weather View 32 v70,2013-01-23 19:30:00,
2013-01-23 11:35:00,51.1,51.1,30.07,North,4,1.0,3.0,100,0.00,,,0.00,0112,Weather View 32 v70,2013-01-23 19:35:00,
2013-01-23 11:45:00,51.5,51.5,30.06,NW,319,3.0,3.0,100,0.00,,,0.00,0112,Weather View 32 v70,2013-01-23 19:45:00,
2013-01-23 11:50:00,51.9,51.9,30.06,North,4,1.0,4.0,100,0.00,,,0.00,0102,Weather View 32 v70,2013-01-23 19:50:00,
2013-01-23 11:55:00,52.2,52.2,30.06,North,4,1.0,4.0,100,0.00,,,0.00,0091,Weather View 32 v70,2013-01-23 19:55:00,
2013-01-23 12:00:00,52.5,52.5,30.06,NNE,27,1.0,4.0,100,0.00,,,0.00,0086,Weather View 32 v70,2013-01-23 20:00:00,
2013-01-23 12:10:00,52.4,52.4,30.06,ENE,72,0.0,4.0,100,0.00,,,0.00,0093,Weather View 32 v70,2013-01-23 20:10:00,
2013-01-23 12:15:00,52.4,52.4,30.06,NW,319,1.0,4.0,100,0.00,,,0.00,0094,Weather View 32 v70,2013-01-23 20:15:00,
2013-01-23 12:20:00,52.5,52.5,30.06,SE,139,1.0,4.0,100,0.00,,,0.00,0095,Weather View 32 v70,2013-01-23 20:20:00,
2013-01-23 12:25:00,52.5,52.5,30.06,SE,139,1.0,4.0,100,0.00,,,0.00,0101,Weather View 32 v70,2013-01-23 20:25:00,
2013-01-23 12:30:00,52.4,52.4,30.06,ESE,117,3.0,4.0,100,0.00,,,0.00,0084,Weather View 32 v70,2013-01-23 20:30:00,
2013-01-23 12:40:00,52.3,52.3,30.06,ESE,117,0.0,4.0,100,0.00,,,0.00,0066,Weather View 32 v70,2013-01-23 20:40:00,
2013-01-23 12:45:00,52.4,52.4,30.07,SSW,207,0.0,4.0,100,0.00,,,0.00,0063,Weather View 32 v70,2013-01-23 20:45:00,
2013-01-23 12:50:00,52.3,52.3,30.06,West,274,0.0,3.0,100,0.00,,,0.00,0068,Weather View 32 v70,2013-01-23 20:50:00,
2013-01-23 12:55:00,52.0,52.0,30.05,NW,319,0.0,3.0,100,0.00,,,0.00,0065,Weather View 32 v70,2013-01-23 20:55:00,
2013-01-23 13:00:00,52.1,52.1,30.05,NNW,342,0.0,3.0,100,0.00,,,0.00,0047,Weather View 32 v70,2013-01-23 21:00:00,
2013-01-23 13:10:00,52.0,52.0,30.06,SE,139,0.0,3.0,100,0.00,,,0.00,0037,Weather View 32 v70,2013-01-23 21:10:00,
2013-01-23 13:15:00,52.0,52.0,30.07,SSW,207,0.0,3.0,100,0.00,,,0.00,0034,Weather View 32 v70,2013-01-23 21:15:00,
2013-01-23 13:25:00,51.3,51.3,30.06,WSW,252,3.0,5.0,100,0.01,,,0.01,0038,Weather View 32 v70,2013-01-23 21:25:00,
2013-01-23 13:30:00,51.0,51.0,30.06,NW,319,3.0,5.0,100,0.02,,,0.02,0045,Weather View 32 v70,2013-01-23 21:30:00,
2013-01-23 13:35:00,50.7,50.7,30.05,WNW,297,3.0,5.0,100,0.02,,,0.02,0046,Weather View 32 v70,2013-01-23 21:35:00,
2013-01-23 13:45:00,51.0,51.0,30.05,SSE,162,1.0,5.0,100,0.02,,,0.02,0051,Weather View 32 v70,2013-01-23 21:45:00,
2013-01-23 13:50:00,51.1,51.1,30.06,SE,139,2.0,5.0,100,0.03,,,0.03,0051,Weather View 32 v70,2013-01-23 21:50:00,
2013-01-23 13:55:00,50.9,50.9,30.06,SE,139,3.0,6.0,100,0.03,,,0.03,0056,Weather View 32 v70,2013-01-23 21:55:00,
2013-01-23 14:00:00,50.9,50.9,30.06,SE,139,3.0,6.0,100,0.03,,,0.03,0059,Weather View 32 v70,2013-01-23 22:00:00,
2013-01-23 14:05:00,51.0,51.0,30.05,SE,139,2.0,6.0,100,0.03,,,0.03,0063,Weather View 32 v70,2013-01-23 22:05:00,
2013-01-23 14:10:00,50.7,50.7,30.05,SE,139,1.0,6.0,100,0.03,,,0.03,0063,Weather View 32 v70,2013-01-23 22:10:00,
2013-01-23 14:15:00,50.7,50.7,30.05,SE,139,1.0,6.0,100,0.03,,,0.03,0072,Weather View 32 v70,2013-01-23 22:15:00,
2013-01-23 14:25:00,50.8,50.8,30.04,SE,139,0.0,6.0,100,0.02,,,0.03,0062,Weather View 32 v70,2013-01-23 22:25:00,
2013-01-23 14:30:00,50.8,50.8,30.04,SW,229,0.0,6.0,100,0.01,,,0.03,0061,Weather View 32 v70,2013-01-23 22:30:00,
2013-01-23 14:35:00,50.8,50.8,30.04,WSW,252,0.0,6.0,100,0.01,,,0.03,0066,Weather View 32 v70,2013-01-23 22:35:00,
2013-01-23 14:45:00,50.8,50.8,30.04,ESE,117,3.0,6.0,100,0.01,,,0.03,0064,Weather View 32 v70,2013-01-23 22:45:00,
2013-01-23 14:55:00,50.8,50.8,30.05,SSW,207,3.0,5.0,100,0.00,,,0.03,0055,Weather View 32 v70,2013-01-23 22:55:00,
2013-01-23 15:00:00,50.8,50.8,30.04,SE,139,0.0,4.0,100,0.00,,,0.03,0065,Weather View 32 v70,2013-01-23 23:00:00,
2013-01-23 15:05:00,50.9,50.9,30.04,NW,319,1.0,4.0,100,0.00,,,0.03,0066,Weather View 32 v70,2013-01-23 23:05:00,
2013-01-23 15:10:00,51.0,51.0,30.04,NE,49,1.0,4.0,100,0.00,,,0.03,0050,Weather View 32 v70,2013-01-23 23:10:00,
2013-01-23 15:16:00,51.2,51.2,30.04,West,274,0.0,4.0,100,0.00,,,0.03,0032,Weather View 32 v70,2013-01-23 23:16:00,
2013-01-23 15:25:00,51.3,51.3,30.05,ESE,117,0.0,4.0,100,0.00,,,0.03,0023,Weather View 32 v70,2013-01-23 23:25:00,
2013-01-23 15:30:00,51.3,51.3,30.05,ESE,117,0.0,4.0,100,0.00,,,0.03,0022,Weather View 32 v70,2013-01-23 23:30:00,
2013-01-23 15:35:00,51.3,51.3,30.05,West,274,1.0,4.0,100,0.00,,,0.03,0024,Weather View 32 v70,2013-01-23 23:35:00,
2013-01-23 15:40:00,50.9,50.9,30.05,NW,319,4.0,4.0,100,0.00,,,0.03,0026,Weather View 32 v70,2013-01-23 23:40:00,
2013-01-23 15:50:00,51.1,51.1,30.04,ESE,117,1.0,6.0,100,0.00,,,0.03,0034,Weather View 32 v70,2013-01-23 23:50:00,
2013-01-23 15:55:00,51.2,51.2,30.05,ENE,72,1.0,6.0,100,0.00,,,0.03,0031,Weather View 32 v70,2013-01-23 23:55:00,
2013-01-23 16:00:00,51.3,51.3,30.05,SSW,207,1.0,6.0,100,0.00,,,0.03,0032,Weather View 32 v70,2013-01-24 00:00:00,
2013-01-23 16:05:00,51.9,51.9,30.06,WNW,297,3.0,11.0,100,0.00,,,0.03,0027,Weather View 32 v70,2013-01-24 00:05:00,
2013-01-23 16:10:00,52.8,52.8,30.05,NW,319,4.0,11.0,100,0.00,,,0.03,0027,Weather View 32 v70,2013-01-24 00:10:00,
2013-01-23 16:17:00,53.8,53.8,30.05,NW,319,8.0,11.0,100,0.00,,,0.03,0029,Weather View 32 v70,2013-01-24 00:17:00,
2013-01-23 16:25:00,53.4,53.4,30.05,NW,319,7.0,11.0,100,0.00,,,0.03,0025,Weather View 32 v70,2013-01-24 00:25:00,
2013-01-23 16:30:00,53.0,53.0,30.05,NNW,342,4.0,11.0,100,0.00,,,0.03,0020,Weather View 32 v70,2013-01-24 00:30:00,
2013-01-23 16:35:00,52.7,52.7,30.05,NW,319,4.0,11.0,100,0.00,,,0.03,0015,Weather View 32 v70,2013-01-24 00:35:00,
2013-01-23 16:40:00,52.1,52.1,30.06,North,4,6.0,11.0,100,0.00,,,0.03,0013,Weather View 32 v70,2013-01-24 00:40:00,
2013-01-23 16:45:00,52.0,52.0,30.06,East,94,1.0,11.0,100,0.00,,,0.03,0011,Weather View 32 v70,2013-01-24 00:45:00,
2013-01-23 16:55:00,51.7,51.7,30.06,WNW,297,2.0,11.0,100,0.00,,,0.03,0009,Weather View 32 v70,2013-01-24 00:55:00,
2013-01-23 17:00:00,51.7,51.7,30.06,WSW,252,0.0,11.0,100,0.00,,,0.03,0006,Weather View 32 v70,2013-01-24 01:00:00,
2013-01-23 17:05:00,51.6,51.6,30.06,WSW,252,0.0,10.0,100,0.00,,,0.03,0005,Weather View 32 v70,2013-01-24 01:05:00,
2013-01-23 17:15:00,51.4,51.4,30.07,WSW,252,0.0,10.0,100,0.00,,,0.03,0002,Weather View 32 v70,2013-01-24 01:15:00,
2013-01-23 17:20:00,51.3,51.3,30.07,SE,139,1.0,10.0,100,0.00,,,0.03,0002,Weather View 32 v70,2013-01-24 01:20:00,
2013-01-23 17:25:00,51.1,51.1,30.07,SSE,162,1.0,9.0,100,0.00,,,0.03,0002,Weather View 32 v70,2013-01-24 01:25:00,
2013-01-23 17:30:00,51.0,51.0,30.07,SSE,162,1.0,9.0,100,0.00,,,0.03,0002,Weather View 32 v70,2013-01-24 01:30:00,
2013-01-23 17:35:00,50.9,50.9,30.08,SE,139,1.0,9.0,100,0.00,,,0.03,0002,Weather View 32 v70,2013-01-24 01:35:00,
2013-01-23 17:40:00,50.7,50.7,30.08,ESE,117,3.0,7.0,100,0.00,,,0.03,0002,Weather View 32 v70,2013-01-24 01:40:00,
2013-01-23 17:45:00,50.6,50.6,30.08,South,184,3.0,4.0,100,0.00,,,0.03,0001,Weather View 32 v70,2013-01-24 01:45:00,
2013-01-23 17:55:00,50.5,50.5,30.08,SSE,162,1.0,4.0,100,0.00,,,0.03,0001,Weather View 32 v70,2013-01-24 01:55:00,
2013-01-23 18:00:00,50.4,50.4,30.09,South,184,3.0,4.0,100,0.00,,,0.03,0001,Weather View 32 v70,2013-01-24 02:00:00,
2013-01-23 18:05:00,50.4,50.4,30.09,SSW,207,3.0,5.0,100,0.00,,,0.03,0001,Weather View 32 v70,2013-01-24 02:05:00,
2013-01-23 18:10:00,50.5,50.5,30.09,ESE,117,2.0,5.0,100,0.00,,,0.03,0001,Weather View 32 v70,2013-01-24 02:10:00,
2013-01-23 18:18:00,50.5,50.5,30.10,ENE,72,1.0,5.0,100,0.00,,,0.03,0001,Weather View 32 v70,2013-01-24 02:18:00,
2013-01-23 18:25:00,50.5,50.5,30.10,SSE,162,0.0,5.0,100,0.00,,,0.03,0001,Weather View 32 v70,2013-01-24 02:25:00,
2013-01-23 18:30:00,50.4,50.4,30.09,SSW,207,0.0,5.0,100,0.00,,,0.03,0001,Weather View 32 v70,2013-01-24 02:30:00,
2013-01-23 18:35:00,50.4,50.4,30.09,SSW,207,0.0,5.0,100,0.00,,,0.03,0002,Weather View 32 v70,2013-01-24 02:35:00,
2013-01-23 18:40:00,50.4,50.4,30.09,SSW,207,0.0,5.0,100,0.00,,,0.03,0002,Weather View 32 v70,2013-01-24 02:40:00,
2013-01-23 18:45:00,50.2,50.2,30.09,West,274,0.0,5.0,100,0.00,,,0.03,0001,Weather View 32 v70,2013-01-24 02:45:00,
2013-01-23 18:55:00,50.2,50.2,30.09,SSW,207,0.0,5.0,100,0.00,,,0.03,0001,Weather View 32 v70,2013-01-24 02:55:00,
2013-01-23 19:00:00,50.2,50.2,30.09,WSW,252,1.0,5.0,100,0.00,,,0.03,0001,Weather View 32 v70,2013-01-24 03:00:00,
2013-01-23 19:05:00,50.2,50.2,30.09,South,184,0.0,4.0,100,0.00,,,0.03,0002,Weather View 32 v70,2013-01-24 03:05:00,
2013-01-23 19:10:00,50.1,50.1,30.09,WNW,297,0.0,3.0,100,0.00,,,0.03,0002,Weather View 32 v70,2013-01-24 03:10:00,
2013-01-23 19:15:00,50.0,50.0,30.09,NW,319,0.0,3.0,100,0.00,,,0.03,0001,Weather View 32 v70,2013-01-24 03:15:00,
2013-01-23 19:20:00,49.9,49.9,30.08,NE,49,1.0,3.0,100,0.00,,,0.03,0001,Weather View 32 v70,2013-01-24 03:20:00,
2013-01-23 19:25:00,49.8,49.8,30.09,SSW,207,2.0,3.0,100,0.00,,,0.03,0001,Weather View 32 v70,2013-01-24 03:25:00,
2013-01-23 19:35:00,49.9,49.9,30.09,SSE,162,0.0,3.0,100,0.00,,,0.03,0002,Weather View 32 v70,2013-01-24 03:35:00,
2013-01-23 19:40:00,49.9,49.9,30.10,SSE,162,0.0,3.0,100,0.00,,,0.03,0002,Weather View 32 v70,2013-01-24 03:40:00,
2013-01-23 19:45:00,49.8,49.8,30.10,SE,139,0.0,3.0,100,0.00,,,0.03,0002,Weather View 32 v70,2013-01-24 03:45:00,
2013-01-23 19:50:00,49.8,49.8,30.10,South,184,0.0,3.0,100,0.00,,,0.03,0001,Weather View 32 v70,2013-01-24 03:50:00,
2013-01-23 19:55:00,49.8,49.8,30.10,SSW,207,0.0,3.0,100,0.00,,,0.03,0001,Weather View 32 v70,2013-01-24 03:55:00,
2013-01-23 20:05:00,49.9,49.9,30.10,SSW,207,0.0,3.0,100,0.00,,,0.03,0002,Weather View 32 v70,2013-01-24 04:05:00,
2013-01-23 20:10:00,49.9,49.9,30.10,SSW,207,0.0,3.0,100,0.00,,,0.03,0002,Weather View 32 v70,2013-01-24 04:10:00,
2013-01-23 20:15:00,49.9,49.9,30.10,NW,319,0.0,3.0,100,0.00,,,0.03,0002,Weather View 32 v70,2013-01-24 04:15:00,
2013-01-23 20:20:00,49.8,49.8,30.10,NNE,27,0.0,3.0,100,0.00,,,0.03,0002,Weather View 32 v70,2013-01-24 04:20:00,
2013-01-23 20:25:00,49.8,49.8,30.10,NW,319,1.0,3.0,100,0.00,,,0.03,0002,Weather View 32 v70,2013-01-24 04:25:00,
2013-01-23 20:30:00,49.7,49.7,30.10,NW,319,2.0,3.0,100,0.00,,,0.03,0002,Weather View 32 v70,2013-01-24 04:30:00,
2013-01-23 20:35:00,49.8,49.8,30.09,WNW,297,2.0,3.0,100,0.00,,,0.03,0002,Weather View 32 v70,2013-01-24 04:35:00,
2013-01-23 20:40:00,49.8,49.8,30.09,NW,319,3.0,4.0,100,0.00,,,0.03,0001,Weather View 32 v70,2013-01-24 04:40:00,
2013-01-23 20:50:00,49.7,49.7,30.09,North,4,0.0,4.0,100,0.00,,,0.03,0001,Weather View 32 v70,2013-01-24 04:50:00,
2013-01-23 20:55:00,49.8,49.8,30.09,SW,229,1.0,4.0,100,0.00,,,0.03,0002,Weather View 32 v70,2013-01-24 04:55:00,
2013-01-23 21:05:00,49.8,49.8,30.10,SSW,207,0.0,4.0,100,0.00,,,0.03,0001,Weather View 32 v70,2013-01-24 05:05:00,
2013-01-23 21:10:00,49.8,49.8,30.09,North,4,2.0,4.0,100,0.00,,,0.03,0002,Weather View 32 v70,2013-01-24 05:10:00,
2013-01-23 21:15:00,49.7,49.7,30.10,NW,319,2.0,4.0,100,0.00,,,0.03,0001,Weather View 32 v70,2013-01-24 05:15:00,
2013-01-23 21:20:00,49.8,49.8,30.10,SSW,207,1.0,4.0,100,0.00,,,0.03,0002,Weather View 32 v70,2013-01-24 05:20:00,
2013-01-23 21:30:00,49.8,49.8,30.10,SSW,207,0.0,4.0,100,0.00,,,0.03,0001,Weather View 32 v70,2013-01-24 05:30:00,
2013-01-23 21:35:00,49.8,49.8,30.11,SSW,207,2.0,4.0,100,0.00,,,0.03,0002,Weather View 32 v70,2013-01-24 05:35:00,
2013-01-23 21:40:00,49.9,49.9,30.10,SW,229,0.0,4.0,100,0.00,,,0.03,0002,Weather View 32 v70,2013-01-24 05:40:00,
2013-01-23 21:50:00,49.9,49.9,30.10,ESE,117,0.0,4.0,100,0.00,,,0.03,0001,Weather View 32 v70,2013-01-24 05:50:00,
2013-01-23 21:55:00,49.9,49.9,30.10,NNE,27,0.0,4.0,100,0.00,,,0.03,0001,Weather View 32 v70,2013-01-24 05:55:00,
2013-01-23 22:00:00,49.9,49.9,30.10,NW,319,0.0,4.0,100,0.00,,,0.03,0002,Weather View 32 v70,2013-01-24 06:00:00,
2013-01-23 22:10:00,49.5,49.5,30.10,ESE,117,3.0,4.0,100,0.00,,,0.03,0002,Weather View 32 v70,2013-01-24 06:10:00,
2013-01-23 22:15:00,49.5,49.5,30.11,SSE,162,1.0,4.0,100,0.00,,,0.03,0002,Weather View 32 v70,2013-01-24 06:15:00,
2013-01-23 22:20:00,49.6,49.6,30.12,SE,139,1.0,4.0,100,0.00,,,0.03,0002,Weather View 32 v70,2013-01-24 06:20:00,
2013-01-23 22:25:00,49.5,49.5,30.12,SE,139,0.0,4.0,100,0.01,,,0.04,0002,Weather View 32 v70,2013-01-24 06:25:00,
2013-01-23 22:30:00,49.5,49.5,30.12,SSE,162,1.0,4.0,100,0.01,,,0.04,0002,Weather View 32 v70,2013-01-24 06:30:00,
2013-01-23 22:40:00,49.3,49.3,30.12,SSW,207,3.0,4.0,100,0.01,,,0.04,0001,Weather View 32 v70,2013-01-24 06:40:00,
2013-01-23 22:45:00,49.3,49.3,30.12,SSW,207,2.0,4.0,100,0.01,,,0.04,0001,Weather View 32 v70,2013-01-24 06:45:00,
2013-01-23 22:50:00,49.3,49.3,30.12,NNE,27,1.0,4.0,100,0.01,,,0.04,0002,Weather View 32 v70,2013-01-24 06:50:00,
2013-01-23 22:55:00,49.3,49.3,30.12,WSW,252,0.0,4.0,100,0.01,,,0.04,0002,Weather View 32 v70,2013-01-24 06:55:00,
2013-01-23 23:00:00,49.4,49.4,30.12,ESE,117,0.0,4.0,100,0.01,,,0.04,0001,Weather View 32 v70,2013-01-24 07:00:00,
2013-01-23 23:10:00,49.3,49.3,30.12,South,184,0.0,4.0,100,0.01,,,0.04,0002,Weather View 32 v70,2013-01-24 07:10:00,
2013-01-23 23:15:00,49.3,49.3,30.12,South,184,0.0,4.0,100,0.01,,,0.04,0001,Weather View 32 v70,2013-01-24 07:15:00,
2013-01-23 23:21:00,49.1,49.1,30.13,East,94,0.0,4.0,100,0.01,,,0.04,0001,Weather View 32 v70,2013-01-24 07:21:00,
2013-01-23 23:30:00,49.1,49.1,30.13,West,274,0.0,4.0,100,0.00,,,0.04,0001,Weather View 32 v70,2013-01-24 07:30:00,
2013-01-23 23:35:00,49.0,49.0,30.12,SSW,207,0.0,4.0,100,0.00,,,0.04,0002,Weather View 32 v70,2013-01-24 07:35:00,
2013-01-23 23:45:00,49.0,49.0,30.12,WSW,252,0.0,3.0,100,0.00,,,0.04,0002,Weather View 32 v70,2013-01-24 07:45:00,
2013-01-23 23:50:00,48.9,48.9,30.12,WNW,297,1.0,3.0,100,0.00,,,0.04,0002,Weather View 32 v70,2013-01-24 07:50:00,
2013-01-23 23:55:00,48.9,48.9,30.12,West,274,1.0,3.0,100,0.00,,,0.04,0001,Weather View 32 v70,2013-01-24 07:55:00,